Fort Meade, MD

1:48 AM EDT on July 22, 2017 (GMT -0400)
Tipton

Weather History for KFME - January, 2013

Change the Weather History Date:

Sunday, January 6, 2013

  Actual Average (KBWI) Record (KBWI)
Temperature  
Mean Temperature 39 °F -  
Max Temperature 50 °F 41 °F 72 °F (1950)
Min Temperature 28 °F 25 °F 5 °F (1904)
Degree Days  
Heating Degree Days 26    
Moisture  
Dew Point 29 °F    
Average Humidity 71    
Maximum Humidity 100    
Minimum Humidity 37    
Precipitation  
Precipitation 0.00 in - - ()
Sea Level Pressure  
Sea Level Pressure 30.13 in    
Wind  
Wind Speed 3 mph (West)    
Max Wind Speed 10 mph    
Max Gust Speed 20 mph    
Visibility 9 miles    
Events      
Averages and records for this station are not official NWS values.
T = Trace of Precipitation, MM = Missing Value Source: NWS Daily Summary

Daily Weather History Graph

Daily Weather History Graph

Search for Another Location

Airport or City:

Trip Planner

Search our weather history database for the weather conditions in past years. The results will help you decide how hot, cold, wet, or windy it might be!

Date:

Astronomy

Jan. 06, 2013 Rise Set
Actual Time 7:26 AM EST 4:59 PM EST
Civil Twilight 6:56 AM EST 5:29 PM EST
Nautical Twilight 6:23 AM EST 6:02 PM EST
Astronomical Twilight 5:51 AM EST 6:35 PM EST
Moon 1:39 AM EST (1/6) 12:24 PM EST (1/6)
Length of Visible Light 10h 32m
Length of Day
9h 33m
Waning Crescent, 33% of the Moon is Illuminated
Jan 6
Waning Crescent
Jan 11
New
Jan 18
First Quarter
Jan 26
Full
Feb 3
Last Quarter

Hourly Weather History & Observations

Time (EST) Temp. Windchill Dew Point Humidity Pressure Visibility Wind Dir Wind Speed Gust Speed Precip Events Conditions
12:00 AM 33.8 °F 30.8 °F 32.0 °F 93% 30.21 in 7.0 mi SSE 3.5 mph - N/A   Overcast
12:21 AM 33.8 °F 27.7 °F 32.0 °F 93% 30.21 in 7.0 mi SSE 6.9 mph - N/A   Overcast
12:42 AM 35.6 °F 31.7 °F 32.0 °F 87% 30.21 in 10.0 mi WNW 4.6 mph - N/A   Overcast
1:03 AM 33.8 °F - 32.0 °F 93% 30.21 in 10.0 mi Calm Calm - N/A   Overcast
1:24 AM 33.8 °F - 32.0 °F 93% 30.21 in 10.0 mi Calm Calm - N/A   Overcast
1:45 AM 33.8 °F - 32.0 °F 93% 30.22 in 10.0 mi Calm Calm - N/A   Overcast
2:06 AM 33.8 °F - 32.0 °F 93% 30.22 in 10.0 mi Calm Calm - N/A   Overcast
2:09 AM 33.8 °F - 32.0 °F 93% 30.22 in 10.0 mi Calm Calm - N/A   Overcast
2:30 AM 33.8 °F - 32.0 °F 93% 30.20 in 10.0 mi Calm Calm - N/A   Overcast
2:51 AM 33.8 °F - 32.0 °F 93% 30.20 in 10.0 mi Calm Calm - N/A   Overcast
3:12 AM 33.8 °F 29.6 °F 32.0 °F 93% 30.17 in 10.0 mi ESE 4.6 mph - N/A   Overcast
3:33 AM 33.8 °F - 32.0 °F 93% 30.17 in 7.0 mi Calm Calm - N/A   Overcast
3:54 AM 33.8 °F - 32.0 °F 93% 30.16 in 7.0 mi Calm Calm - N/A   Overcast
4:15 AM 33.8 °F - 32.0 °F 93% 30.16 in 7.0 mi Calm Calm - N/A   Overcast
4:36 AM 33.8 °F - 32.0 °F 93% 30.16 in 10.0 mi Calm Calm - N/A   Mostly Cloudy
4:57 AM 32.0 °F - 32.0 °F 100% 30.16 in 5.0 mi Calm Calm - N/A   Mostly Cloudy
5:18 AM 32.0 °F - 32.0 °F 100% 30.15 in 7.0 mi Calm Calm - N/A   Scattered Clouds
5:42 AM 32.0 °F - 30.2 °F 93% 30.15 in 7.0 mi Calm Calm - N/A   Clear
6:03 AM 30.2 °F - 30.2 °F 100% 30.15 in 5.0 mi Calm Calm - N/A   Clear
6:24 AM 30.2 °F - 28.4 °F 93% 30.16 in 5.0 mi Calm Calm - N/A   Clear
6:45 AM 28.4 °F - 28.4 °F 100% 30.16 in 5.0 mi Calm Calm - N/A   Clear
7:06 AM 28.4 °F - 28.4 °F 100% 30.16 in 5.0 mi Calm Calm - N/A   Clear
7:27 AM 28.4 °F - 26.6 °F 93% 30.16 in 5.0 mi Calm Calm - N/A   Clear
7:48 AM 28.4 °F - 26.6 °F 93% 30.17 in 7.0 mi Calm Calm - N/A   Clear
8:09 AM 28.4 °F - 26.6 °F 93% 30.16 in 1.8 mi Calm Calm - N/A   Unknown
8:30 AM 28.4 °F - 28.4 °F 100% 30.16 in 7.0 mi Calm Calm - N/A   Clear
8:51 AM 32.0 °F - 32.0 °F 100% 30.16 in 5.0 mi Calm Calm - N/A   Mostly Cloudy
9:12 AM 33.8 °F - 32.0 °F 93% 30.16 in 7.0 mi Calm Calm - N/A   Overcast
9:33 AM 35.6 °F - 33.8 °F 93% 30.17 in 10.0 mi Calm Calm - N/A   Overcast
10:18 AM 39.2 °F - 32.0 °F 75% 30.17 in 10.0 mi Calm Calm - N/A   Overcast
10:39 AM 41.0 °F - 32.0 °F 70% 30.16 in 10.0 mi Calm Calm - N/A   Scattered Clouds
11:00 AM 42.8 °F - 32.0 °F 66% 30.14 in 10.0 mi Calm Calm - N/A   Clear
11:21 AM 44.6 °F 42.2 °F 32.0 °F 61% 30.13 in 10.0 mi WNW 4.6 mph - N/A   Clear
12:03 PM 48.2 °F - 28.4 °F 46% 30.11 in 10.0 mi WSW 8.1 mph - N/A   Clear
12:24 PM 50.0 °F - 26.6 °F 40% 30.09 in 10.0 mi West 9.2 mph - N/A   Clear
12:45 PM 50.0 °F - 26.6 °F 40% 30.08 in 10.0 mi WSW 10.4 mph - N/A   Clear
1:27 PM 50.0 °F - 24.8 °F 37% 30.06 in 10.0 mi West 10.4 mph - N/A   Scattered Clouds
1:51 PM 50.0 °F - 24.8 °F 37% 30.06 in 10.0 mi WSW 6.9 mph - N/A   Scattered Clouds
2:12 PM 50.0 °F - 26.6 °F 40% 30.05 in 10.0 mi SSW 5.8 mph - N/A   Mostly Cloudy
2:33 PM 50.0 °F - 26.6 °F 40% 30.04 in 10.0 mi SW 8.1 mph - N/A   Mostly Cloudy
2:54 PM 50.0 °F - 26.6 °F 40% 30.05 in 10.0 mi West 8.1 mph - N/A   Scattered Clouds
3:15 PM 50.0 °F - 26.6 °F 40% 30.05 in 10.0 mi WSW 5.8 mph - N/A   Mostly Cloudy
3:36 PM 50.0 °F - 26.6 °F 40% 30.05 in 10.0 mi WSW 8.1 mph - N/A   Overcast
3:57 PM 50.0 °F - 26.6 °F 40% 30.05 in 10.0 mi West 8.1 mph - N/A   Overcast
4:18 PM 48.2 °F - 26.6 °F 43% 30.05 in 10.0 mi West 6.9 mph - N/A   Overcast
5:00 PM 46.4 °F 42.4 °F 26.6 °F 46% 30.05 in 10.0 mi WSW 8.1 mph - N/A   Overcast
5:21 PM 46.4 °F 44.3 °F 26.6 °F 46% 30.06 in 10.0 mi West 4.6 mph - N/A   Overcast
5:45 PM 44.6 °F 43.1 °F 26.6 °F 49% 30.07 in 10.0 mi West 3.5 mph - N/A   Overcast
6:06 PM 44.6 °F 43.1 °F 28.4 °F 53% 30.07 in 10.0 mi West 3.5 mph - N/A   Overcast
7:30 PM 44.6 °F 42.2 °F 26.6 °F 49% 30.09 in 10.0 mi West 4.6 mph - N/A   Overcast
7:51 PM 44.6 °F 42.2 °F 26.6 °F 49% 30.10 in 10.0 mi WNW 4.6 mph - N/A   Overcast
8:12 PM 44.6 °F 42.2 °F 28.4 °F 53% 30.10 in 10.0 mi WNW 4.6 mph - N/A   Overcast
8:33 PM 44.6 °F 42.2 °F 26.6 °F 49% 30.10 in 10.0 mi West 4.6 mph - N/A   Overcast
8:54 PM 44.6 °F 39.2 °F 28.4 °F 53% 30.11 in 10.0 mi West 10.4 mph - N/A   Overcast
9:15 PM 44.6 °F 39.7 °F 26.6 °F 49% 30.11 in 10.0 mi NW 9.2 mph 19.6 mph N/A   Overcast
10:00 PM 44.6 °F 42.2 °F 26.6 °F 49% 30.12 in 10.0 mi West 4.6 mph - N/A   Overcast
10:21 PM 44.6 °F 41.4 °F 26.6 °F 49% 30.12 in 10.0 mi WNW 5.8 mph - N/A   Overcast
10:42 PM 42.8 °F 38.0 °F 26.6 °F 53% 30.13 in 10.0 mi West 8.1 mph - N/A   Overcast
11:03 PM 42.8 °F 39.3 °F 28.4 °F 57% 30.14 in 10.0 mi West 5.8 mph - N/A   Overcast
11:24 PM 42.8 °F 39.3 °F 26.6 °F 53% 30.15 in 10.0 mi WNW 5.8 mph - N/A   Overcast
11:45 PM 42.8 °F 40.1 °F 28.4 °F 57% 30.16 in 10.0 mi WNW 4.6 mph - N/A   Overcast